Location: Usti nad Labem
(50.6670°N, 14.0330°E)
Time: 01:49:47
(UTC+02:00)

ISS - Pass Details

Date: 27 April 2025
Orbit: 416 x 420 km, 51.6° (Epoch: 16 May)

Event Time Altitude Azimuth Distance (km) Brightness Sun altitude
Exits shadow 03:45:48 36° 186° (S) 675 -3.2 -16.2°
Maximum altitude 03:46:29 42° 152° (SSE) 610 -3.2 -16.1°
Drops below altitude 10° 03:49:41 10° 81° (E) 1,497 -0.2 -15.8°
Sets 03:51:50 0° 74° (ENE) 2,363 1.1 -15.5°
